Regional Weather Roundup
Issued by NWS Boston, MA

Home | Current Version | Previous Version | Text Only | Print | Product List | Glossary On
Versions: 1 2 3 4 5 6 7 8 9 10 11 12 13 14 15 16 17 18 19 20 21 22 23 24 25 26 27 28 29 30 31 32 33 34 35 36 37 38 39 40 41 42 43 44 45 46
000
ASUS41 KBOX 311910
RWRBOX

REGIONAL WEATHER ROUNDUP
NATIONAL WEATHER SERVICE TAUNTON MA
300 PM EDT MON AUG 31 2015

NOTE:  "FAIR" INDICATES FEW OR NO CLOUDS BELOW 12,000 FEET WITH NO
SIGNIFICANT WEATHER AND/OR OBSTRUCTIONS TO VISIBILITY.  THE FOLLOWING
OBSERVATION LOCATIONS DO NOT REPORT PRESENT WEATHER...PROVINCETOWN...
SMITHFIELD...BLOCK ISLAND...KEENE...AND OXFORD.

MAZALL-312000-
EASTERN MASSACHUSETTS

CITY           SKY/WX    TMP DP  RH WIND       PRES   REMARKS
BOSTON         PTSUNNY   88  62  41 W17G32    29.88F
BEVERLY        PTSUNNY   86  62  44 W14G21    29.86F
LAWRENCE       MOSUNNY   88  62  41 W13G29    29.89F
BEDFORD        MOSUNNY   88  62  41 W13G21    29.88F
BLUE HILL        N/A     86  64  47 W16G26    29.91F
NORWOOD        MOSUNNY   88  65  46 W15       29.89F HX  90
MARSHFIELD     MOSUNNY   88  66  48 SW10G17   29.89F HX  90
PLYMOUTH       PTSUNNY   86  67  52 SW16      29.91F
TAUNTON        PTSUNNY   85  64  49 W9        29.90F
NEW BEDFORD    PTSUNNY   87  65  47 W12G21    29.91F
$$

MAZALL-312000-
CAPE COD AND THE ISLANDS

CITY           SKY/WX    TMP DP  RH WIND       PRES   REMARKS
FALMOUTH       PTSUNNY   82  72  69 SW16G22   29.92F
HYANNIS        PTSUNNY   85  70  60 SW16      29.89F
CHATHAM        PTSUNNY   80  72  76 SW8G18    29.92F
PROVINCETOWN     N/A     84  64  51 SW12      29.89F
NANTUCKET      MOSUNNY   81  70  69 W17       29.93F
MARTHAS VNYRD  PTSUNNY   84  69  60 W12       29.92F
$$

MAZALL-312000-
CENTRAL AND WESTERN MASSACHUSETTS

CITY           SKY/WX    TMP DP  RH WIND       PRES   REMARKS
WORCESTER      MOSUNNY   82  61  48 W18       29.96F
FITCHBURG      MOSUNNY   86  62  44 W13G23    29.92F
ORANGE         MOSUNNY   86  63  45 W8G21     29.93F
SPRINGFIELD    MOSUNNY   86  66  50 NW12G17   29.92F
WESTFIELD      MOSUNNY   87  64  46 W16       29.93F
NORTH ADAMS    PTSUNNY   81  65  58 VRB5      29.95F
PITTSFIELD     MOSUNNY   80  64  58 NW14      29.98F
$$

RIZALL-312000-
RHODE ISLAND

CITY           SKY/WX    TMP DP  RH WIND       PRES   REMARKS
PROVIDENCE     PTSUNNY   85  64  49 W13       29.93F
NEWPORT        MOSUNNY   82  69  64 SW9       29.93F
BLOCK ISLAND   PTSUNNY   82  70  65 W15G21    29.95F
SMITHFIELD     MOSUNNY   82  66  57 SW7       29.93F
WESTERLY       PTSUNNY   80  68  66 W12       29.95F
$$

CTZALL-312000-
CONNECTICUT

CITY           SKY/WX    TMP DP  RH WIND       PRES   REMARKS
BRADLEY INTL   PTSUNNY   87  67  51 SW7       29.92F HX  90
HARTFORD       PTSUNNY   88  66  48 W9G18     29.93F HX  90
BRIDGEPORT     PTSUNNY   86  71  60 SW12      29.95F HX  91
DANBURY        PTSUNNY   86  64  47 W12G18    29.98F
GROTON         MOSUNNY   84  71  65 W14G20    29.93F
NEW HAVEN      PTSUNNY   82  68  62 SW13G18   29.95F
CHESTER        NOT AVBL
MERIDEN        PTSUNNY   89  64  43 W7        29.95F HX  90
WILLIMANTIC    PTSUNNY   85  66  53 W7        29.94F
OXFORD         MOSUNNY   84  64  51 NW9       30.01F
$$

MEZ002-015-021-024-NHZ003-005-008-011-012-014-VTZ005-008-312000-
NORTHERN NEW ENGLAND

CITY           SKY/WX    TMP DP  RH WIND       PRES   REMARKS
PORTLAND ME    MOSUNNY   86  63  45 W15G23    29.84F
BANGOR ME      PTSUNNY   80  61  52 W10       29.79F
CONCORD NH     MOSUNNY   86  62  44 W13G23    29.88F
MANCHESTER NH  MOSUNNY   87  61  41 W15G22    29.87F
NASHUA NH      PTSUNNY   88  63  43 W13G20    29.89F
PORTSMOUTH NH  MOSUNNY   86  63  46 W13       29.85F
JAFFREY NH     MOSUNNY   82  62  50 W9G21     29.95F
KEENE NH       SUNNY     84  63  48 W8        29.92F
BURLINGTON VT  PTSUNNY   82  61  48 NW9       29.91S
MT. WASHINGTON FOG       52  52 100 W64G77      N/A  VSB 0
$$

NYZ052-076-312000-
EASTERN NEW YORK

CITY           SKY/WX    TMP DP  RH WIND       PRES   REMARKS
ALBANY         MOSUNNY   86  65  49 NW12      29.95F
NEW YORK CITY  PTSUNNY   90  62  39 W13       29.96F HX  90
$$

ANZALL-312000-
MARINE OBSERVATIONS

STATION/POSITION TIME  TEMP    WIND        PRES    VSBY  WAVE
                       AIR SEA DIR/SP/G                  HT/PER
                 (UTC) (F)     (DEG/KT/KT) (MB)    (MI)  (FT/S)
BOSTON BUOY      1850   78 72  250/  8/ 10 1011.9F         1
BUZZARDS BAY     1800          230/ 12/ 13 1015.0F
NANTUCKET SOUND  1850   75 75  250/ 16/ 17 1012.6F         1/ 3
MASS BAY-STELLWA 1804   75 69  220/ 10/ 12   N/A    1 7/8  2/11
ISLE OF SHOALS   1900   81     270/ 20/ 21 1010.2F
S OF BLOCK IS    1808      73                N/A           4/ 6
$$

......................KEY.........................
  SKY/WX - SKY CONDITION/PRESENT WEATHER
  TMP    - TEMPERATURE IN FAHRENHEIT
  DWPT   - DEWPOINT IN FAHRENHEIT
  RH     - RELATIVE HUMIDITY IN PERCENT
  WIND   - DIRECTION AND SPEED IN MPH
  PRES   - MEAN SEA LEVEL PRESSURE IN INCHES OF HG
  WCI    - WIND CHILL INDEX
  VSB    - VISIBILITY IN MILES
  HX     - HEAT INDEX
  TC     - TEMPERATURE IN CELSIUS
  VRB    - VARIABLE WIND DIRECTION
  N/A    - NOT AVAILABLE


USA.gov is the U.S. government's official web portal to all federal, state and local government web resources and services.